TITAN 3C TRANSTAGE DEB, 43284

Orbit data source: Space-Track

TITAN 3C TRANSTAGE DEB, 43284 is space debris in GEO originally from a launch on Sun, 09 Feb 1969 UTC launched from the Air Force Eastern Test Range (AFETR). Debris objects in space refer to the collection of defunct objects orbiting the Earth. Examples of debris include non-operational satellites, rocket bodies, and fragments generated from explosions, collisions, or faulty payload assembly.

Loading next visibility...
Identifier
43284, 1969-013E
Orbit
GEO
Country
Flag of USUS
Related business
Manufacturer
Martin Marietta
Mission
Spacecraft
Bus & Motor
Unknown
Mass
Unknown
Launch date (UTC)
1969-02-09 (58 years ago)
Launch vehicle
Unknown
Launch site
Air Force Eastern Test Range (AFETR)
Object type
Payload
Rocket body
Debris
Shape & HBR
Unknown shape, 1.1 m
Radar Cross Section
Medium (>0.1 m² and <1 m²)

Expand to show TLE details & history
Last TLE update: 2 days ago

TLE from 2 days ago
0 TITAN 3C TRANSTAGE DEB
1 43284U 69013E   26253.62053113 -.00000107  00000-0  00000-0 0  9998
2 43284   1.5578  76.3218 0139638  47.5413 314.6282  0.97231546 30129
Epoch: 2026-09-10T14:53Z
TLE epoch observation values (Epoch: 2026-09-10T14:53:33.889Z)
Latitude
0.00001°
Longitude
-135.71427°
Altitude
36,244.783 km
Speed
3.073 km/s
True Right ascension
05h 09m 19s
True Declination
0° 00' 00"
Sunlit
Object was in daylight at epoch
Visualization orbit readout
Latitude
Unknown
Longitude
Unknown
Altitude
Unknown
Speed
Unknown
Apparent Right ascension
Unknown
Apparent Declination
Unknown
Sunlit
N/A
Visualization observer readout
Local Sidereal Time
12:11:48
Azimuth
Unknown
Elevation
Unknown
Doppler factor
Unknown
Orbital elements
Apogee altitude
37,263.069 km
Perigee altitude
36,061.06 km
Semi-major axis
43,040.202 km
Eccentricity
0.01396
Inclination
1.5578°
RAAN
76.3218°
Arg. of periapsis
47.5413°
True anomaly
313.47536°
Mean anomaly
314.6282°
Eccentric anomaly
314.0532°
Mean motion
0.24307 °/min
Orbital period
1,481.05 mins
BSTAR
0
Loading maneuver chart data...
Computing Atmospheric mass density...

Documentation

Showing up to 5 results
|